EET,Max TemperatureF,Mean TemperatureF,Min TemperatureF,Max Dew PointF,MeanDew PointF,Min DewpointF,Max Humidity, Mean Humidity, Min Humidity, Max Sea Level PressureIn, Mean Sea Level PressureIn, Min Sea Level PressureIn, Max VisibilityMiles, Mean VisibilityMiles, Min VisibilityMiles, Max Wind SpeedMPH, Mean Wind SpeedMPH, Max Gust SpeedMPH,PrecipitationIn, CloudCover, Events, WindDirDegrees
2012-12-1,66,60,53,57,54,50,94,82,64,29.98,29.89,29.83,6,6,4,5,0,,0.00,2,Rain-Thunderstorm,0
2012-12-2,68,59,50,61,52,45,88,77,59,30.01,29.84,29.65,6,6,5,12,3,,0.00,5,Rain,182
2012-12-3,68,59,50,48,43,36,82,59,40,29.80,29.67,29.56,6,6,6,22,5,34,0.00,2,,263
2012-12-4,57,49,41,37,30,23,81,51,27,29.86,29.81,29.62,6,6,6,17,8,33,0.00,1,,326
2012-12-5,60,50,41,52,42,37,87,75,55,29.80,29.65,29.56,6,6,6,8,3,,0.00,4,Rain,282
2012-12-6,60,52,44,46,41,36,82,64,39,29.74,29.70,29.65,6,6,6,15,3,,0.00,3,Rain,301
2012-12-7,55,48,41,43,37,32,81,64,41,30.01,29.88,29.74,6,6,6,12,4,,0.00,1,,329
2012-12-8,59,48,37,52,43,34,87,71,48,30.01,29.89,29.71,6,6,4,21,5,32,0.00,5,Rain,158
2012-12-9,60,53,46,54,46,39,88,75,59,29.68,29.64,29.59,6,6,6,18,5,31,0.00,6,Rain,242
2012-12-10,53,47,39,41,36,32,87,66,47,29.86,29.73,29.62,6,6,6,14,7,,0.00,1,,333
2012-12-11,62,50,37,46,40,32,87,67,48,29.86,29.78,29.68,6,6,6,16,4,25,0.00,4,,284
2012-12-12,59,50,41,41,34,25,81,56,27,30.09,29.97,29.83,6,6,6,10,5,,0.00,4,Rain,348
2012-12-13,53,45,37,41,33,27,81,64,38,30.33,30.24,30.09,6,6,6,12,4,,0.00,1,,328
2012-12-14,53,46,39,37,36,34,87,67,47,30.36,30.34,30.30,6,6,6,6,1,,0.00,4,,351
2012-12-15,55,50,44,45,41,39,87,72,58,30.36,30.31,30.24,6,6,6,4,1,,0.00,5,,-1
2012-12-16,62,56,50,52,49,45,88,75,68,30.21,30.06,29.98,6,6,6,0,0,,0.00,6,,-1
2012-12-17,68,58,48,54,50,46,94,77,52,29.92,29.84,29.80,6,6,3,9,1,,0.00,4,Rain-Thunderstorm,292
2012-12-18,60,55,50,54,49,43,94,82,63,29.77,29.66,29.59,6,6,3,9,2,,0.00,4,Rain,294
2012-12-19,55,50,46,43,42,41,82,71,62,29.77,29.69,29.65,6,6,6,14,8,,0.00,2,,329
2012-12-20,48,46,44,41,35,32,76,64,58,29.98,29.87,29.77,6,6,6,23,12,34,0.00,4,,333
2012-12-21,53,47,41,41,35,30,76,62,47,29.98,29.94,29.89,6,6,6,7,2,,0.00,4,,311
2012-12-22,50,48,46,45,41,36,87,75,62,30.01,29.90,29.86,6,6,6,17,5,30,0.00,7,Rain,23
2012-12-23,50,47,44,36,34,32,66,60,54,30.15,30.07,30.01,6,6,6,21,16,40,0.00,2,,339
2012-12-24,53,48,42,37,35,32,70,61,51,30.27,30.21,30.15,6,6,6,12,7,,0.00,2,,324
2012-12-25,62,50,39,46,39,32,87,68,42,30.30,30.25,30.21,,,,6,2,,0.00,,,341
2012-12-26,64,52,39,48,43,37,93,78,55,30.24,30.18,30.15,,,,6,3,,0.00,,,340
2012-12-27,66,54,41,50,46,41,100,76,49,30.15,30.10,30.06,6,6,6,9,1,,0.00,5,,298
2012-12-28,64,54,44,52,48,43,100,81,56,30.09,29.99,29.92,6,6,6,12,2,,0.00,2,,191
2012-12-29,57,52,48,52,48,45,100,86,67,30.01,29.93,29.86,6,6,4,12,3,,0.00,6,Rain,2
2012-12-30,51,50,48,48,44,43,94,82,71,30.15,30.09,30.01,6,5,3,18,10,28,0.00,7,Rain,319
2012-12-31,51,50,50,43,43,43,76,74,71,30.18,30.13,30.12,6,6,6,18,14,32,0.00,6,Rain,332